This demonstration page uses our WeatherBlox Daily Observations layout. Learn more.

Left ArrowRight Arrow

Hourly Observations for May 13, 2019

Temp ( °F °C ) Dew Point ( °F °C ) Humidity (%) Winds ( mph kmh ) Pressure ( in mb ) Visibility ( mi km ) Precip ( " mm )
12:15 am 00:15 Clear 47 8.5 44 6.6 88 88 SSE 6 9 29.91 1013 10 16 N/A
12:35 am 00:35 Clear 47 8.6 44 6.6 87 87 S 7 11 29.91 1013 10 16 N/A
12:55 am 00:55 Clear 47 8.5 44 6.7 89 89 S 8 13 29.92 1013 10 16 N/A
1:15 am 01:15 Clear 47 8.3 44 6.5 89 89 S 6 9 29.92 1013 10 16 N/A
1:35 am 01:35 Clear 45 7.4 43 6 91 91 SSE 5 7 29.93 1013 10 16 N/A
1:55 am 01:55 Clear 45 7 43 6.1 94 94 S 5 7 29.93 1014 10 16 N/A
2:15 am 02:15 Clear 45 7 43 6.2 95 95 S 5 7 29.94 1014 10 16 N/A
2:35 am 02:35 Clear 44 6.5 42 5.7 95 95 SSE 6 9 29.94 1014 10 16 N/A
2:55 am 02:55 Clear 43 6.2 42 5.6 96 96 SSE 5 7 29.95 1014 10 16 N/A
3:15 am 03:15 Clear 44 6.5 42 5.8 95 95 N N/A 29.94 1014 10 16 N/A
3:35 am 03:35 Clear 43 6.1 42 5.5 96 96 S 3 6 29.95 1014 10 16 N/A
3:55 am 03:55 Clear 43 6 42 5.3 95 95 S 3 6 29.95 1014 10 16 N/A
4:15 am 04:15 Clear 42 5.6 41 5.1 97 97 S 3 6 29.95 1014 10 16 N/A
4:35 am 04:35 Clear 43 6.1 42 5.7 97 97 S 3 6 29.95 1014 10 16 N/A
4:55 am 04:55 Clear 43 6 42 5.5 97 97 S 3 6 29.95 1014 10 16 N/A
5:15 am 05:15 Clear 42 5.6 42 5.4 99 99 S 5 7 29.95 1014 10 16 N/A
5:35 am 05:35 Clear 41 5 41 4.8 99 99 S 6 9 29.96 1014 10 16 N/A
5:55 am 05:55 Clear 41 4.9 41 4.9 100 100 S 6 9 29.96 1015 10 16 N/A
6:15 am 06:15 Clear 41 5.1 41 5.1 100 100 S 6 9 29.96 1014 10 16 N/A
6:35 am 06:35 Sunny 41 5 41 5 100 100 SSE 7 11 29.97 1015 7 11 N/A
6:55 am 06:55 Sunny 40 4.6 40 4.6 100 100 SSE 5 7 29.97 1015 7 11 N/A
7:15 am 07:15 Sunny 42 5.4 42 5.4 100 100 SSE 5 7 29.96 1015 7 11 N/A
7:35 am 07:35 Sunny 44 6.7 44 6.5 99 99 N N/A 29.95 1014 10 16 N/A
7:55 am 07:55 Sunny 47 8.3 46 7.6 95 95 S 6 9 29.94 1014 10 16 N/A
8:15 am 08:15 Sunny 50 10.2 46 8 86 86 S 9 15 29.92 1013 10 16 N/A
8:35 am 08:35 Sunny 53 11.6 47 8.1 79 79 S 8 13 29.91 1013 10 16 N/A
8:55 am 08:55 Sunny 55 12.8 46 7.9 72 72 S 8 13 29.90 1012 10 16 N/A
9:15 am 09:15 Sunny 57 14 46 8 67 67 S 9 15 29.89 1012 10 16 N/A
9:35 am 09:35 Sunny 59 15 46 7.8 62 62 S 12 19 29.87 1011 10 16 N/A
9:55 am 09:55 Sunny 60 15.8 47 8.1 60 60 S 10 17 29.86 1011 10 16 N/A
10:15 am 10:15 Sunny 62 16.7 46 7.7 56 56 S 12 19 29.85 1011 10 16 N/A
10:35 am 10:35 Sunny 64 17.7 46 7.9 53 53 S 14 22 29.85 1011 10 16 N/A
10:55 am 10:55 Sunny 65 18.3 46 7.9 51 51 S 16 26 29.84 1011 10 16 N/A
11:15 am 11:15 Sunny 66 18.9 45 7.4 47 47 S 15 24 29.84 1010 10 16 N/A
11:35 am 11:35 Sunny 68 19.8 46 7.6 45 45 S 13 20 29.82 1010 10 16 N/A
11:55 am 11:55 Sunny 69 20.4 46 7.8 44 44 SSW 10 17 29.81 1010 10 16 N/A
12:15 pm 12:15 Sunny 69 20.8 46 7.5 42 42 S 14 22 29.81 1010 10 16 N/A
12:35 pm 12:35 Sunny 70 21 46 7.7 42 42 SSW 13 20 29.80 1009 10 16 N/A
12:55 pm 12:55 Sunny 71 21.7 47 8.3 42 42 S 10 17 29.79 1009 10 16 N/A
1:15 pm 13:15 Sunny 72 22.1 47 8.5 42 42 S 13 20 29.78 1008 10 16 N/A
1:35 pm 13:35 Sunny 72 22.4 47 8.4 41 41 S 12 19 29.78 1008 10 16 N/A
1:55 pm 13:55 Sunny 73 23 47 8.4 39 39 S 13 20 29.76 1008 10 16 N/A
2:15 pm 14:15 Sunny 74 23.2 46 8 38 38 SSW 15 24 29.76 1008 10 16 N/A
2:35 pm 14:35 Sunny 74 23.6 47 8.5 38 38 SSW 10 17 29.75 1007 10 16 N/A
2:55 pm 14:55 Sunny 75 23.9 48 8.7 38 38 SSW 13 20 29.75 1007 10 16 N/A
3:15 pm 15:15 Sunny 76 24.6 49 9.2 38 38 SW 13 20 29.74 1007 10 16 N/A
3:35 pm 15:35 Sunny 76 24.6 47 8.6 36 36 S 14 22 29.73 1007 10 16 N/A
3:55 pm 15:55 Sunny 77 24.8 48 8.9 36 36 SSW 14 22 29.73 1007 10 16 N/A
4:15 pm 16:15 Sunny 77 25 47 8.6 35 35 SSW 13 20 29.72 1006 10 16 N/A
4:35 pm 16:35 Sunny 77 25.2 47 8.6 35 35 SSW 12 19 29.72 1006 10 16 N/A
4:55 pm 16:55 Sunny 77 25.2 47 8.5 35 35 S 9 15 29.72 1006 10 16 N/A
5:15 pm 17:15 Sunny 77 25.2 46 7.8 33 33 SSW 12 19 29.72 1006 10 16 N/A
5:35 pm 17:35 Sunny 77 25.1 47 8.6 35 35 SSW 9 15 29.72 1006 10 16 N/A
5:55 pm 17:55 Sunny 77 25.2 47 8.3 34 34 SSW 14 22 29.72 1006 10 16 N/A
6:10 pm 18:10 Sunny 77 25.1 46 7.6 33 33 S 9 15 29.71 1006 10 16 N/A
6:35 pm 18:35 Sunny 77 25 46 7.8 33 33 S 12 19 29.71 1006 10 16 N/A
6:55 pm 18:55 Sunny 77 24.8 46 7.9 34 34 S 10 17 29.71 1006 10 16 N/A
7:15 pm 19:15 Sunny 76 24.5 47 8.4 36 36 S 12 19 29.70 1006 10 16 N/A
7:35 pm 19:35 Sunny 75 23.9 47 8.3 37 37 S 13 20 29.71 1006 10 16 N/A
7:55 pm 19:55 Sunny 74 23.1 47 8.5 39 39 S 12 19 29.71 1006 10 16 N/A
8:15 pm 20:15 Sunny 72 22 48 9.1 44 44 S 10 17 29.72 1006 10 16 N/A
8:35 pm 20:35 Sunny 69 20.4 49 9.5 50 50 S 9 15 29.74 1007 10 16 N/A
8:55 pm 20:55 Clear 67 19.5 49 9.7 53 53 S 9 15 29.75 1008 10 16 N/A
9:15 pm 21:15 Clear 66 18.7 50 10 57 57 S 10 17 29.77 1008 10 16 N/A
9:35 pm 21:35 Clear 65 18.6 50 10 58 58 S 12 19 29.76 1008 10 16 N/A
9:55 pm 21:55 Clear 64 17.8 51 10.3 62 62 S 9 15 29.78 1008 10 16 N/A
10:15 pm 22:15 Clear 64 17.7 51 10.5 63 63 S 9 15 29.79 1009 10 16 N/A
10:35 pm 22:35 Clear 64 17.5 51 10.5 64 64 S 12 19 29.80 1009 10 16 N/A
10:55 pm 22:55 Clear 63 17.2 51 10.8 66 66 S 10 17 29.81 1010 10 16 N/A
11:15 pm 23:15 Mostly Cloudy 64 17.6 52 11 65 65 SSW 9 15 29.83 1010 10 16 N/A
11:35 pm 23:35 Cloudy 64 17.5 52 11 66 66 WSW 16 26 29.87 1011 10 16 N/A
11:55 pm 23:55 Cloudy 62 16.7 55 12.5 76 76 SW 7 11 29.86 1011 10 16 0.03 0.76

Powered by AerisWeather